Погода в Арске

Россия / Республика Татарстан     56°05′28″N   49°52′37″E
темп.,
°C
ветер,
м/с
пор.,
м/с
влажн.,
%
обл.,
%
осадки,
мм/ч
давл.,
гПа
погр.,
м
8 марта, пн
пн800:00−8ю81494100 1.4 998769
03:00−7ю81494100 2.3 994689
06:00−5ю71395100 1.3 991661
09:00−5з121793100 3.1 9911039
12:00−6з9157286 0.5 994925
15:00−6зюз6118654 0.5 998791
18:00−9зюз479099 0.0 999135
21:00−12зюз339384 0.0 100022
9 марта, вт
вт900:00−13з349651 0.0 100161
03:00−14з459749 0.0 100472
06:00−17зсз349842 0.0 100745
09:00−14з359642 0.0 1009150
12:00−11з239083 0.0 1010287
15:00−11зсз229192 0.0 1010303
18:00−13ссз1295100 0.1 101121
21:00−14с3496100 0.2 101293
10 марта, ср
ср1000:00−16с479691 0.0 1012133
03:00−18с599691 0.1 1012235
06:00−21с6119698 0.0 1014270
09:00−22с699599 0.1 1015312
12:00−21с6109299 0.0 1017382
15:00−19с6108780 0.0 1018490
18:00−22ссз511900 0.0 1019227
21:00−25ссз48950 0.0 1021129
11 марта, чт
чт1100:00−26сз45970 0.0 102179
03:00−26зсз45990 0.0 102280
06:00−26зсз47990 0.0 1022121
09:00−20зсз599646 0.1 1022309
12:00−16зсз4793100 0.0 1021386
15:00−13зсз5891100 0.1 1021498
18:00−15зсз449599 0.0 102382
21:00−15зсз479786 0.0 1024106
12 марта, пт
пт1200:00−16сз459327 0.0 102668
03:00−17зсз349213 0.0 102738
06:00−18зсз34910 0.0 102836
09:00−15зсз35900 0.0 1030159
12:00−11з34870 0.0 1030244
15:00−9зюз35900 0.0 1030312
18:00−14юз34950 0.0 102934
21:00−16ююз34940 0.0 102935